TimeEDT,TemperatureF,Dew PointF,Humidity,Sea Level PressureIn,VisibilityMPH,Wind Direction,Wind SpeedMPH,Gust SpeedMPH,PrecipitationIn,Events,Conditions,WindDirDegrees,DateUTC
12:53 AM,57.0,52.0,83,29.96,10.0,Calm,Calm,-,N/A,,Clear,0,2013-09-26 04:53:00
1:53 AM,55.9,53.1,90,29.96,10.0,Calm,Calm,-,N/A,,Clear,0,2013-09-26 05:53:00
2:53 AM,53.1,52.0,96,29.96,10.0,North,3.5,-,N/A,,Clear,360,2013-09-26 06:53:00
3:53 AM,52.0,51.1,97,29.96,8.0,NNE,3.5,-,N/A,,Clear,20,2013-09-26 07:53:00
4:53 AM,52.0,50.0,93,29.96,10.0,Calm,Calm,-,N/A,,Clear,0,2013-09-26 08:53:00
5:53 AM,51.1,48.9,92,29.98,10.0,Calm,Calm,-,N/A,,Clear,0,2013-09-26 09:53:00
6:53 AM,50.0,48.0,93,29.99,10.0,Calm,Calm,-,N/A,,Clear,0,2013-09-26 10:53:00
7:53 AM,50.0,48.0,93,30.02,8.0,NE,3.5,-,N/A,,Clear,40,2013-09-26 11:53:00
8:53 AM,54.0,51.1,90,30.03,10.0,Calm,Calm,-,N/A,,Clear,0,2013-09-26 12:53:00
9:53 AM,57.9,54.0,87,30.04,10.0,Calm,Calm,-,N/A,,Clear,0,2013-09-26 13:53:00
10:53 AM,64.9,53.1,65,30.05,10.0,Calm,Calm,-,N/A,,Clear,0,2013-09-26 14:53:00
11:53 AM,68.0,50.0,52,30.05,10.0,ENE,4.6,-,N/A,,Clear,70,2013-09-26 15:53:00
12:53 PM,70.0,51.1,51,30.04,10.0,East,3.5,-,N/A,,Clear,80,2013-09-26 16:53:00
1:53 PM,73.9,48.0,40,30.03,10.0,Variable,4.6,-,N/A,,Clear,0,2013-09-26 17:53:00
2:53 PM,73.0,44.1,35,30.03,10.0,Calm,Calm,-,N/A,,Clear,0,2013-09-26 18:53:00
3:53 PM,75.0,46.0,36,30.02,10.0,NNE,8.1,-,N/A,,Clear,20,2013-09-26 19:53:00
4:53 PM,75.0,46.0,36,30.03,10.0,Calm,Calm,-,N/A,,Clear,0,2013-09-26 20:53:00
5:53 PM,73.0,46.9,39,30.04,10.0,North,3.5,-,N/A,,Clear,360,2013-09-26 21:53:00
6:53 PM,71.1,46.0,41,30.06,10.0,NNE,5.8,-,N/A,,Clear,20,2013-09-26 22:53:00
7:53 PM,68.0,46.0,45,30.06,10.0,North,5.8,-,N/A,,Clear,360,2013-09-26 23:53:00
8:53 PM,64.9,48.0,54,30.08,10.0,North,5.8,-,N/A,,Clear,360,2013-09-27 00:53:00
9:53 PM,62.1,48.9,62,30.09,10.0,North,5.8,-,N/A,,Clear,350,2013-09-27 01:53:00
10:53 PM,60.1,50.0,69,30.09,10.0,NNE,6.9,-,N/A,,Clear,20,2013-09-27 02:53:00
11:53 PM,57.0,50.0,77,30.10,10.0,North,3.5,-,N/A,,Clear,10,2013-09-27 03:53:00